User: anonymous   Login
Location: San Pelegr�n
(42.1868°N, 0.0079°E)
Time: 12:58:57
(UTC+00:00)
Language:

Cosmos 2297 Rocket - Orbit

View from above orbital plane
View from above orbital plane
View from above satellite
View from above satellite

Ground track
Ground track

The orbit data is extracted from the following two-line orbital elements,

1 23405U 94077B   20098.73364745 +.00000188 +00000-0 +12156-3 0  9994
2 23405 070.9831 219.1552 0004123 232.1537 127.9213 14.15217753310355
Epoch (UTC): 07 April 2020 17:36:27
Eccentricity: 0.0004123
inclination: 70.9831°
perigee height: 838 km
apogee height: 844 km
right ascension of ascending node: 219.1552°
argument of perigee: 232.1537°
revolutions per day: 14.15217753
mean anomaly at epoch: 127.9213°
orbit number at epoch: 31035

The dashed part of the orbit path shows where the satellite is in the earth's shadow,  

DLR